Regional Weather Roundup
Issued by NWS

Home | Current Version | Previous Version | Graphics & Text | Print | Product List | Glossary Off
Versions: 1 2 3 4 5 6 7 8 9 10 11 12 13 14 15 16 17 18 19 20 21 22 23 24 25 26 27 28 29 30 31 32 33 34 35 36 37 38 39 40 41 42 43 44 45 46 47 48 49 50

000
ASUS43 KTOP 182008
RWRKS

WEATHER ROUNDUP FOR KANSAS
NATIONAL WEATHER SERVICE GOODLAND KS
200 PM CST SUN FEB 18 2018

NOTE:  "FAIR" INDICATES FEW OR NO CLOUDS BELOW 12,000 FEET WITH NO
SIGNIFICANT WEATHER AND/OR OBSTRUCTIONS TO VISIBILITY.

KSZ001>006-013>018-027>032-041>047-182100-
NORTHWEST KANSAS

CITY           SKY/WX    TMP DP  RH WIND       PRES   REMARKS
GOODLAND       MOSUNNY   69  12  11 SW25G35   29.45F
HAYS           CLOUDY    68  35  29 SW31G38   29.53F
HILL CITY      CLOUDY    67  30  25 S17G29    29.51F
RUSSELL        PTSUNNY   69  39  33 S31G41    29.56F
$$

KSZ061>065-074>080-084>089-182100-
SOUTHWEST KANSAS

CITY           SKY/WX    TMP DP  RH WIND       PRES   REMARKS
DODGE CITY     SUNNY     70  34  26 SW31G45   29.57F
ELKHART        SUNNY     72  33  23 SW37G44   29.57F
GARDEN CITY    CLOUDY    74  26  16 SW26G38   29.53F
GREAT BEND     CLOUDY    65  41  41 S31G41    29.57F
LIBERAL        SUNNY     73  33  23 SW33G45   29.59F
PRATT          SUNNY     63  40  43 S30G39    29.64F
$$

KSZ066>073-081>083-090>101-182100-
SOUTHEAST KANSAS

CITY           SKY/WX    TMP DP  RH WIND       PRES   REMARKS
CHANUTE        CLOUDY    55  38  52 S26G33    29.88F
COFFEYVILLE    MOSUNNY   53  40  61 S18G30    29.92F
HUTCHINSON     SUNNY     60  42  51 S33G45    29.67F
MEDICINE LODGE   N/A     62  45  53 S29G45    29.68F
NEWTON         PTSUNNY   54  41  61 S36G43    29.70F
PARSONS        PTSUNNY   54  39  57 S16G28    29.91F
WICHITA INTL   PTSUNNY   57  43  59 S26G44    29.74F
WICHITA JABRA  PTSUNNY   53  43  68 S26G41    29.74F
WICHITA MCCONL CLOUDY    55  41  60 S24G37    29.75F
WINFIELD       PTSUNNY   53  43  68 S26G33    29.82F
$$

KSZ007>012-019>026-033>040-048>060-102>105-182100-
NORTHEAST KANSAS

CITY           SKY/WX    TMP DP  RH WIND       PRES   REMARKS
CONCORDIA      MOSUNNY   58  39  49 S20G36    29.61F
EMPORIA        PTSUNNY   52  37  56 S25G36    29.79F
LAWRENCE       MOSUNNY   54  30  40 S18G28    29.83F
MANHATTAN      MOSUNNY   57  36  45 S21G32    29.70F
MARYSVILLE     CLOUDY    55  34  44 S28G36    29.63F
OLATHE IND     MOSUNNY   53  30  41 S21G32    29.84F
OLATHE EXE     MOSUNNY   52  29  41 S30G40    29.83F
SALINA         MOSUNNY   62  42  47 S31G45    29.65F
TOPEKA BILLARD MOSUNNY   55  33  43 S23G33    29.78F
TOPEKA FORBES  MOSUNNY   55  34  45 S22G38    29.78F
$$




USA.gov is the U.S. government's official web portal to all federal, state and local government web resources and services.